User: anonymous   Login
Location: Hoyos del Collado
(40.3594°N, 5.2003°W)
Time: 13:43:59
(UTC+00:00)
Language:

Cosmos 1697 Rocket - Orbit

View from above orbital plane
View from above orbital plane
View from above satellite
View from above satellite

Ground track
Ground track

The orbit data is extracted from the following two-line orbital elements,

1 16182U 85097B   24173.91087214  .00000293  00000-0  17128-3 0  9992
2 16182  71.0034  17.8481 0006147 143.7814 312.7229 14.16427199998602
Epoch (UTC): 21 June 2024 21:51:39
Eccentricity: 0.0006147
inclination: 71.0034°
perigee height: 833 km
apogee height: 842 km
right ascension of ascending node: 17.8481°
argument of perigee: 143.7814°
revolutions per day: 14.16427199
mean anomaly at epoch: 312.7229°
orbit number at epoch: 99860

The dashed part of the orbit path shows where the satellite is in the earth's shadow,  

DLR